Вернуться в каталог

COSMOS 397 DEB

АктивенLEO
NORAD 5042·DEBRIS·🇷🇺 Russia

Запущен Feb 25, 1971 с Baikonur Cosmodrome

Loading…

Ближайшие Пролёты (ближайшие 24 часа)

TLE

СвежийSource: Space-Track

Эпоха: Sep 14, 2026, 03:47 UTC

1 05042U 71015P   26257.15779621  .00004025  00000-0  92346-3 0  9993
2 05042  65.6064 305.9106 0564956 263.2138  90.4368 13.88846099664477

Отслеживайте COSMOS 397 DEB в реальном времени с AllMySat

Download on the App Store